Location: Fours
(44.3167°N, 6.7000°E)
Time: 12:06:11
(UTC+00:00)

Cosmos 2227 - Pass Details

Date: 29 May 2022
Orbit: 833 x 863 km, 71.0° (Epoch: 28 June)

Event Time Altitude Azimuth Distance (km) Brightness Sun altitude
Rises 20:17:06 0° 336° (NNW) 3,445 8.8 -10.5°
Reaches altitude 10° 20:19:36 10° 340° (NNW) 2,507 7.8 -10.9°
Maximum altitude 20:25:20 62° 61° (ENE) 971 4.4 -11.6°
Enters shadow 20:29:52 16° 139° (SE) 2,078 5.6 -12.1°
